Tracking 27380 objects as of 6-Jun-2023
HD Live streaming from Space Station
objects crossing your sky now

COSMOS 1275 DEB

Track COSMOS 1275 DEB now!
10-day predictions


NORAD ID: 42122
Int'l Code: 1981-053QJ
Perigee: 895.6 km
Apogee: 1,033.9 km
Inclination: 82.9 °
Period: 104.2 minutes
Semi major axis: 7335 km
RCS: Unknown
Launch date: June 4, 1981
Source: Commonwealth of Independent States (former USSR) (CIS)
Launch site: PLESETSK MISSILE AND SPACE COMPLEX (PKMTR)

Note: This is SATELLITE DEBRIS
Your satellite tracking list
Your tracking list is empty




NASA's NSSDC Master Catalog

Two Line Element Set (TLE):
1 42122U 81053QJ  23155.20591643  .00001974  00000-0  17698-2 0  9998
2 42122  82.9383 119.0407 0094315  77.7933 283.3770 13.81770433479788
Source of the keplerian elements: AFSPC